SCP
0 0 0 0 0 0 0 0 0 0 0 0 0 0 0 0 0 0 0 0 0 0 0 0 0 0 0 0 1 1 0 0 0 0 0 0 0 0 0 0 0 0 0
0 0 0 0 0 0 0 0 0 0 0 0 0 0 0 0 0 0 0 0 0 0 0 0 0 0 0 1 1 1 0 0 0 0 0 0 0 0 0 0 0 0 0
0 0 0 0 0 0 0 0 0 0 0 0 0 0 0 0 0 0 0 0 0 0 0 0 0 0 0 1 1 0 0 0 0 0 0 0 0 0 0 0 0 0 0
0 0 0 0 0 0 0 0 0 0 0 0 0 0 0 0 0 0 0 0 0 0 0 0 0 0 0 1 0 0 0 0 0 0 0 0 0 0 0 0 0 0 0
0 0 0 0 0 0 0 0 0 0 0 0 0 0 0 0 0 0 0 0 0 0 0 0 0 0 0 0 0 0 0 0 0 0 0 0 0 0 0 0 0 0 0
0 0 0 0 0 0 0 0 0 0 0 0 0 0 0 0 0 0 0 0 0 0 0 0 0 0 0 0 0 0 0 0 0 0 0 0 0 0 0 0 0 0 0
0 0 0 0 0 0 0 0 0 0 0 0 0 0 0 0 0 0 0 0 0 0 0 0 0 0 0 0 0 0 0 0 0 0 0 0 0 0 0 0 0 0 0
0 0 0 0 0 0 0 0 0 0 0 0 0 0 0 0 0 0 0 0 0 0 0 0 0 0 0 0 0 0 0 0 0 0 0 0 0 0 0 0 0 0 0
0 0 0 0 0 0 0 0 0 0 0 0 0 0 0 0 0 0 0 0 0 0 0 0 0 0 0 0 0 0 0 0 0 0 0 0 0 0 0 0 0 0 0
0 0 0 0 0 0 0 0 0 0 0 0 0 0 0 0 0 0 0 0 0 0 0 0 0 0 0 0 0 0 0 0 0 0 0 0 0 0 0 0 0 0 0
0 0 0 0 0 0 0 0 0 0 0 0 0 0 0 0 0 0 0 0 0 0 0 0 0 0 0 0 0 0 0 0 0 0 0 0 0 0 0 0 0 0 0
0 0 0 0 0 0 0 0 0 0 0 0 0 0 0 0 0 0 0 0 0 0 0 0 0 0 0 0 0 0 0 0 0 0 0 0 0 0 0 0 0 0 0
0 0 0 0 0 0 0 0 0 0 0 0 0 0 0 0 0 0 0 0 0 0 0 0 0 0 0 0 0 0 0 0 0 0 0 0 0 0 0 0 0 0 0
0 0 0 0 0 0 0 0 0 0 0 0 0 0 0 0 0 0 0 0 0 0 0 0 0 0 0 0 0 0 0 0 0 0 0 0 0 0 0 0 0 0 0
0 0 0 0 0 0 0 0 0 0 0 0 0 0 0 0 0 0 0 0 0 0 0 0 0 0 0 0 0 0 0 0 0 0 0 0 0 0 0 0 0 0 0
0 0 0 0 0 0 0 0 0 0 0 0 0 0 0 0 0 0 0 0 0 0 0 0 0 0 0 0 0 0 0 0 0 0 0 0 0 0 0 0 0 0 0
0 0 0 0 0 0 0 0 0 0 0 0 0 0 0 0 0 0 0 0 0 0 0 0 0 0 0 0 0 0 0 0 0 0 0 0 0 0 0 0 0 0 0
0 0 0 0 0 0 0 0 0 0 0 0 0 0 0 0 0 0 0 0 0 0 0 0 0 0 0 0 0 0 0 0 0 0 0 0 0 0 0 0 0 0 0
0 0 0 0 0 0 0 0 0 0 0 0 0 0 0 0 0 0 0 0 0 0 0 0 0 0 0 0 0 0 0 0 0 0 0 0 0 0 0 0 0 0 0
0 0 0 0 0 0 0 0 0 0 0 0 0 0 0 0 0 0 0 0 0 0 0 0 0 0 0 0 0 0 0 0 0 0 0 0 0 0 0 0 0 0 0
0 0 0 0 0 0 0 0 0 0 0 0 0 0 0 0 0 0 0 0 0 0 0 0 0 0 0 0 0 0 0 0 0 0 0 0 0 0 0 0 0 0 0
0 0 0 0 0 0 0 0 0 0 0 0 0 0 0 0 0 0 0 0 0 0 0 0 0 0 0 0 0 0 0 0 0 0 0 0 0 0 0 0 0 0 0
0 0 0 0 0 0 0 0 0 0 0 0 0 0 0 0 0 0 0 0 0 0 0 0 0 0 0 0 0 0 0 0 0 0 0 0 0 0 0 0 0 0 0
0 0 0 0 0 0 0 0 0 0 0 0 0 0 0 0 0 0 0 0 0 0 0 0 0 0 0 0 0 0 0 0 0 0 0 0 0 0 0 0 0 0 0
0 0 0 0 0 0 0 0 0 0 0 0 0 0 0 0 0 0 0 0 0 0 0 0 0 0 0 0 0 0 0 0 0 0 0 0 0 0 0 0 0 0 0
0 0 0 0 0 0 0 0 0 0 0 0 0 0 0 0 0 0 0 0 0 0 0 0 0 0 0 0 0 0 0 0 0 0 0 0 0 0 0 0 0 0 0
Wind_Speed
5 5 6 6 6 6 6 7 7 7 7 8 8 9 9 9 9 8 9 9 10 10 10 10 11 9 7 6 6 6 6 5 7 6 4 4 5 6 5 5 5 5 6
5 5 6 6 6 6 7 7 7 7 8 8 8 9 9 9 8 8 9 9 10 11 11 10 10 8 9 8 7 7 7 6 6 8 5 4 5 6 5 5 4 4 5
5 5 6 6 7 7 8 8 7 7 8 8 8 8 9 8 8 8 9 9 10 10 10 10 10 10 10 8 8 8 6 6 5 7 6 4 4 4 4 4 3 3 3
4 5 6 7 7 7 7 7 7 7 8 8 8 8 8 8 8 8 8 8 9 9 9 10 10 10 11 10 8 8 6 6 6 6 6 4 4 4 4 4 3 2 2
4 5 6 7 7 6 7 7 7 7 8 7 8 7 7 7 7 7 7 8 8 9 9 9 10 12 13 11 8 7 7 6 6 5 5 4 4 4 5 4 3 2 1
4 5 6 6 6 6 7 7 7 7 7 7 7 7 7 7 11 13 10 7 7 8 8 8 9 10 13 14 15 14 12 9 9 7 6 7 6 5 3 4 4 3 2
5 6 6 6 7 7 8 7 7 7 7 7 7 6 7 8 13 13 13 8 6 6 6 6 6 7 10 8 9 11 11 13 13 9 8 9 7 6 5 5 5 3 2
5 6 6 6 7 7 7 7 7 6 6 6 6 6 6 8 12 13 13 8 6 6 6 6 7 7 8 8 6 6 7 7 8 6 6 6 6 5 6 5 4 3 2
5 6 6 6 7 7 7 7 6 6 6 6 6 6 6 8 11 12 10 4 5 6 6 6 7 7 9 9 7 6 5 4 4 5 6 5 6 7 7 5 5 5 2
6 6 6 6 6 7 7 7 6 5 6 6 6 5 6 6 9 11 10 4 4 4 4 4 7 8 9 9 7 6 6 5 3 3 3 3 3 5 7 6 6 6 3
6 6 6 6 6 7 6 5 5 6 6 6 6 6 5 6 8 10 10 4 3 3 4 4 4 8 8 8 7 6 7 5 4 4 3 2 2 3 3 3 3 4 4
5 6 6 6 6 6 6 6 5 5 5 5 5 6 4 4 6 7 8 7 6 4 4 3 3 6 6 6 5 6 7 5 4 4 3 3 3 3 3 4 4 3 2
5 6 6 7 6 5 5 6 5 4 4 4 4 5 5 4 4 7 7 6 7 4 3 5 5 4 4 3 5 6 5 4 5 4 4 3 3 4 4 5 5 5 5
5 6 6 6 6 5 4 4 4 4 4 4 4 5 5 4 3 3 3 3 5 4 3 3 4 3 2 1 3 3 3 4 5 5 4 4 4 5 4 4 5 4 4
5 6 6 5 5 5 5 4 5 4 4 5 4 4 5 5 6 8 6 4 3 3 3 2 1 1 0 1 1 2 3 4 4 4 5 5 5 5 4 3 4 4 4
5 5 5 4 4 4 4 5 7 7 9 9 9 8 6 7 9 9 9 8 7 6 3 1 1 1 1 1 2 3 3 4 4 5 5 5 5 5 5 4 4 4 5
5 6 5 4 4 5 5 5 6 8 8 9 9 9 8 9 9 9 8 7 6 4 1 1 1 1 1 0 2 3 3 3 4 5 5 5 5 5 5 5 5 5 5
5 6 5 4 4 4 4 5 5 6 6 6 7 8 9 9 9 9 8 5 3 3 1 1 1 1 1 1 2 3 3 4 4 5 5 5 6 6 6 6 5 6 6
5 4 4 4 4 4 4 4 4 5 5 5 5 6 8 8 8 8 7 3 1 1 1 1 1 1 1 1 2 2 3 4 5 5 5 5 5 6 6 6 6 8 7
4 7 7 4 4 4 4 4 4 4 5 5 5 5 5 5 4 4 4 2 2 2 1 1 1 1 1 1 2 3 4 4 5 5 5 5 4 5 6 7 6 6 5
4 5 7 5 4 4 4 4 4 4 4 4 4 5 7 4 3 3 3 3 2 2 2 1 1 1 1 1 2 3 4 4 4 5 5 4 5 5 5 5 6 6 6
4 4 3 3 4 4 4 4 3 3 4 4 4 5 7 4 2 2 3 3 2 2 2 1 1 1 0 1 2 3 3 4 5 5 5 5 5 6 6 5 6 6 7
3 4 4 4 4 5 5 4 4 4 4 4 4 4 3 3 2 2 3 3 3 2 2 1 1 1 1 1 1 2 3 4 4 6 6 5 5 5 6 6 8 8 8
4 4 4 4 4 4 4 4 4 4 4 4 3 3 3 2 2 2 2 2 2 2 2 2 1 2 2 2 1 1 2 4 5 5 7 7 6 6 6 7 7 8 8
4 4 4 4 4 4 4 4 4 4 4 4 3 3 2 2 2 2 2 2 2 2 3 2 2 2 2 2 2 3 6 8 7 6 5 6 7 7 7 8 8 8 8
4 4 4 4 4 4 4 4 4 4 4 4 3 3 2 2 2 2 2 2 2 2 2 2 2 2 2 2 3 6 8 9 9 9 6 6 7 7 8 7 9 9 9
Wind_Direction
273 274 279 280 276 273 270 269 267 267 266 265 264 264 262 258 253 248 245 246 242 242 238 234 235 231 230 230 224 224 226 224 246 266 255 226 219 218 220 210 212 220 213
274 276 277 281 282 280 276 272 270 270 269 267 266 264 260 258 252 247 248 247 243 242 239 234 237 234 229 227 226 225 225 222 229 252 255 232 232 213 207 206 220 229 213
278 281 284 284 281 278 280 279 276 274 274 272 269 264 262 259 257 250 248 249 248 245 240 233 234 231 233 230 228 228 225 228 222 231 244 239 238 213 198 214 218 221 215
287 289 289 287 283 277 281 282 280 279 277 274 273 267 264 262 261 256 250 249 253 249 242 235 233 231 231 228 230 227 222 222 223 223 231 233 231 207 193 198 213 210 210
293 293 288 288 288 285 285 286 285 282 281 279 279 276 271 267 263 260 256 254 255 253 247 239 234 236 238 234 233 222 214 215 218 219 222 231 227 200 205 194 201 192 204
290 290 290 295 298 295 292 290 289 287 284 283 279 277 276 276 281 279 273 261 257 252 250 243 236 236 241 241 241 237 227 219 215 214 220 219 227 208 200 186 179 178 213
291 294 296 298 299 298 298 300 295 291 286 285 279 275 274 277 283 285 282 276 263 255 251 245 244 239 243 227 231 237 237 237 232 222 215 217 217 203 184 189 188 186 200
293 297 297 299 298 300 302 302 299 294 290 286 282 277 276 280 288 290 286 279 266 259 252 246 241 238 233 223 216 224 229 232 231 226 217 222 216 197 188 190 174 132 90
293 294 296 297 299 303 303 303 303 303 299 292 291 287 282 285 290 290 289 279 271 263 257 252 241 235 235 232 223 221 225 235 231 207 197 197 198 191 177 158 159 150 156
292 293 296 297 299 300 300 300 302 301 297 300 299 294 284 283 287 292 293 277 274 270 262 252 247 242 238 244 225 210 213 216 192 157 154 166 188 178 180 184 176 166 158
295 299 301 301 298 297 300 302 306 305 305 305 303 302 297 293 301 302 299 284 271 274 271 268 258 249 246 246 236 214 206 201 179 169 166 161 158 154 153 154 162 167 168
306 305 304 305 305 310 307 305 306 306 305 307 309 309 308 304 306 309 307 300 293 285 282 276 266 264 250 241 232 198 189 191 171 159 157 159 156 149 137 125 113 99 109
310 309 309 311 312 311 307 308 311 310 304 308 313 315 319 322 320 318 317 320 320 313 309 295 287 281 263 234 195 186 185 180 165 162 164 164 151 144 134 118 105 97 81
312 312 314 316 318 319 318 314 313 311 307 304 307 310 312 314 316 323 331 338 334 325 319 316 312 305 287 204 174 178 182 173 165 162 155 147 140 138 142 141 137 126 103
314 312 314 314 313 322 325 321 314 307 297 298 300 301 306 311 313 318 320 316 310 297 312 318 323 316 162 157 157 156 155 151 151 151 150 147 142 139 138 135 138 129 127
315 314 312 312 313 315 320 326 329 320 318 312 309 306 309 308 315 318 322 316 311 307 314 328 334 332 293 185 153 142 145 150 151 148 144 145 144 143 138 131 132 132 132
308 309 310 312 312 316 320 321 322 329 331 326 323 321 317 318 317 318 325 324 322 327 348 335 323 324 331 132 141 141 140 142 142 141 141 144 141 139 140 140 140 135 131
310 308 309 307 310 314 315 313 312 317 323 326 330 331 329 328 327 325 329 336 345 356 5 333 317 330 5 116 130 131 132 132 133 136 139 142 143 143 144 146 147 142 138
313 311 308 307 309 310 312 313 313 313 312 314 320 327 332 331 334 339 339 347 342 348 349 345 336 342 22 103 119 128 135 135 135 137 139 142 144 143 143 145 141 140 136
317 317 319 316 314 316 316 315 315 315 315 314 318 320 323 333 342 343 348 352 356 348 344 355 352 1 30 102 120 131 132 132 135 135 138 140 142 141 141 141 141 141 137
315 318 322 322 318 314 313 310 308 307 307 309 312 320 326 330 330 332 343 356 356 352 352 13 27 29 47 104 120 127 134 135 137 140 141 140 138 134 132 133 133 132 130
313 316 319 316 315 318 318 313 310 308 310 310 314 326 333 335 339 342 351 351 350 354 354 17 23 15 22 123 140 140 141 141 141 141 136 133 131 131 131 130 130 130 130
316 316 318 318 317 317 319 319 317 315 313 313 316 322 333 343 349 350 349 350 356 358 359 13 24 16 22 40 111 141 146 149 147 146 140 136 135 135 136 136 136 135 136
316 315 315 315 315 315 316 317 318 317 314 315 320 324 332 338 347 351 351 355 359 2 5 14 26 32 32 39 68 92 121 132 134 138 139 139 134 134 135 134 134 137 137
318 315 312 310 310 311 314 316 318 319 320 321 322 325 331 341 348 349 354 4 8 19 16 15 23 36 45 52 83 108 122 125 130 132 130 131 130 133 135 134 134 135 135
320 316 312 308 307 309 310 311 315 318 318 318 322 329 336 342 346 351 359 12 18 18 18 26 30 38 42 59 98 117 123 124 128 129 129 128 128 130 132 131 133 134 136